Location: G�kdere
(37.0328°N, 30.9000°E)
Time: 21:40:01
(UTC+00:00)

DELTA 2 R/B (1) - Pass Details

Date: 03 March 2021
Orbit: 790 x 803 km, 39.6° (Epoch: 19 April)

Event Time Altitude Azimuth Distance (km) Brightness Sun altitude
Rises 16:59:20 0° 225° (SW) 3,271 7.4 -14.1°
Reaches altitude 10° 17:01:56 10° 218° (SW) 2,342 6.5 -14.6°
Maximum altitude 17:07:03 40° 150° (SSE) 1,151 4.1 -15.7°
Enters shadow 17:09:31 26° 100° (E) 1,515 4.4 -16.1°
